Location: Campavaglio
(41.1333°N, 9.2333°E)
Time: 21:35:04
(UTC+00:00)

Cosmos 2344 - Pass Details

Date: 07 June 2020
Orbit: 1250 x 2992 km, 63.3° (Epoch: 11 July)

Event Time Altitude Azimuth Distance (km) Brightness Sun altitude
Exits shadow 03:10:19 - 206° (SSW) 3,926 5.6 -7.0°
Reaches altitude 10° 03:12:00 10° 205° (SSW) 3,306 5.2 -6.8°
Maximum altitude 03:19:33 75° 121° (ESE) 1,293 3.8 -5.7°
Drops below altitude 10° 03:27:20 10° 38° (NE) 3,401 7.4 -4.5°
Sets 03:30:20 0° 37° (NE) 4,505 8.2 -4.0°
